User: anonymous   Login
Location: Chandrammap?lem
(16.9200°N, 81.0051°E)
Time: 20:38:27
(UTC+00:00)
Language:

Cosmos 292 Rocket - Orbit

View from above orbital plane
View from above orbital plane
View from above satellite
View from above satellite

Ground track
Ground track

The orbit data is extracted from the following two-line orbital elements,

1  4071U 69070B   24198.20963853  .00001047  00000-0  20210-3 0  9994
2  4071  74.0468 205.9897 0015384 243.2214 116.7380 14.64709380916062
Epoch (UTC): 16 July 2024 05:01:52
Eccentricity: 0.0015384
inclination: 74.0468°
perigee height: 667 km
apogee height: 689 km
right ascension of ascending node: 205.9897°
argument of perigee: 243.2214°
revolutions per day: 14.64709380
mean anomaly at epoch: 116.7380°
orbit number at epoch: 91606

The dashed part of the orbit path shows where the satellite is in the earth's shadow,  

DLR